Regional Weather Roundup
Issued by NWS

Home | Current Version | Previous Version | Graphics & Text | Print | Product List | Glossary On
Versions: 1 2 3 4 5 6 7 8 9 10 11 12 13 14 15 16 17 18 19 20 21 22 23 24 25 26 27 28 29 30 31 32 33 34 35 36 37 38 39 40 41 42 43 44 45 46 47 48 49 50
000
ASUS43 KOAX 030602
RWRNE

WEATHER ROUNDUP FOR NEBRASKA
NATIONAL WEATHER SERVICE OMAHA NE
100 AM CDT TUE MAY 03 2016

NOTES: SATELLITE DATA IS BEING USED TO AUGMENT CLOUD COVER ABOVE
       12000 FEET.
       "FAIR" INDICATES FEW OR NO CLOUDS BELOW 12,000 FEET WITH NO
       SIGNIFICANT WEATHER AND/OR OBSTRUCTIONS TO VISIBILITY.

  * THESE STATIONS DO NOT REPORT WEATHER SUCH AS RAIN...SNOW OR FOG.

NEZ001>004-019>022-054>056-030700-
NEBRASKA PANHANDLE

CITY           SKY/WX    TMP DP  RH WIND       PRES   REMARKS
SCOTTSBLUFF    CLOUDY    46  39  76 SW5       30.11R
6HR MIN TEMP:  44; 6HR MAX TEMP:  64; 6HR PCP: TRACE;

ALLIANCE       PTCLDY    36  35  96 W7        30.04F WCI  30
6HR MIN TEMP:  36; 6HR MAX TEMP:  58; 6HR PCP:  0.01;

CHADRON        MOCLDY    45  41  86 W5        30.05S
6HR MIN TEMP:  45; 6HR MAX TEMP:  62; 6HR PCP: TRACE;

KIMBALL        PTCLDY    43  33  67 NW6       30.12R
SIDNEY         LGT RAIN  43  37  79 E7        30.08R
6HR MIN TEMP:  43; 6HR MAX TEMP:  59; 6HR PCP: TRACE;

$$

NEZ057>060-069>072-079>082-030700-
SOUTHWEST NEBRASKA

CITY           SKY/WX    TMP DP  RH WIND       PRES   REMARKS
NORTH PLATTE   RAIN      46  44  93 S5        30.06R FOG
6HR MIN TEMP:  41; 6HR MAX TEMP:  60; 6HR PCP:  0.07;

IMPERIAL       LGT RAIN  47  42  83 N15       30.09R
6HR MIN TEMP:  47; 6HR MAX TEMP:  61; 6HR PCP:  0.01;

LEXINGTON      CLOUDY    48  40  73 SE7       30.03F
MCCOOK         CLOUDY    48  39  71 W5        30.01F
6HR MIN TEMP:  42; 6HR MAX TEMP:  61;

$$

NEZ005>010-023>029-035>040-094-030700-
NORTH CENTRAL NEBRASKA

CITY           SKY/WX    TMP DP  RH WIND       PRES   REMARKS
VALENTINE      MOCLDY    45  43  93 CALM      30.06S
6HR MIN TEMP:  44; 6HR MAX TEMP:  56; 6HR PCP:  0.17;

AINSWORTH      CLEAR     45  45  97 NW5       30.04F
BROKEN BOW     CLOUDY    41  38  89 NW3       30.03S
6HR MIN TEMP:  40; 6HR MAX TEMP:  59;

ORD            MOCLDY    44  40  85 CALM      30.03S
6HR MIN TEMP:  42; 6HR MAX TEMP:  59;

$$

NEZ041-046>049-061>064-073>077-083>087-030700-
SOUTH CENTRAL NEBRASKA

CITY           SKY/WX    TMP DP  RH WIND       PRES   REMARKS
GRAND ISLAND   CLOUDY    47  40  76 S6        30.05S
6HR MIN TEMP:  47; 6HR MAX TEMP:  59;

AURORA         CLOUDY    49  39  68 S3        30.05S
HASTINGS       CLEAR     45  37  73 CALM      30.05R
6HR MIN TEMP:  45; 6HR MAX TEMP:  59;

KEARNEY *      CLOUDY    48  39  71 S7        30.05S
YORK           CLEAR     46  39  76 S3        30.06S
$$

NEZ011>018-030>034-042>045-030700-
NORTHEAST NEBRASKA

CITY           SKY/WX    TMP DP  RH WIND       PRES   REMARKS
NORFOLK        CLEAR     44  38  79 CALM      30.04S
6HR MIN TEMP:  43; 6HR MAX TEMP:  60;

ALBION         PTCLDY    46  40  81 CALM      30.05S
BLAIR          CLEAR     51  39  63 S3        30.05S
COLUMBUS *     CLEAR     43  34  70 CALM      30.06S
FREMONT        CLOUDY    49  42  78 CALM      30.05S
TEKAMAH        CLOUDY    49  46  90 CALM      30.05R
6HR MIN TEMP:  49; 6HR MAX TEMP:  62;

$$

NEZ050>053-065>068-078-088>093-030700-
SOUTHEAST NEBRASKA

CITY           SKY/WX    TMP DP  RH WIND       PRES   REMARKS
LINCOLN        MOCLDY    50  43  77 CALM      30.07R
6HR MIN TEMP:  48; 6HR MAX TEMP:  63;

OMAHA EPPLEY   PTCLDY    47  44  90 CALM      30.05S
6HR MIN TEMP:  46; 6HR MAX TEMP:  63;

BEATRICE       CLEAR     46  42  86 CALM      30.06R
FALLS CITY     CLEAR     47  42  83 S3        30.06R
6HR MIN TEMP:  46; 6HR MAX TEMP:  61;

$$

NEZ044-045-051>053-067-030700-
OMAHA AREA

CITY           SKY/WX    TMP DP  RH WIND       PRES   REMARKS
OMAHA EPPLEY   PTCLDY    47  44  90 CALM      30.05S
6HR MIN TEMP:  46; 6HR MAX TEMP:  63;

BLAIR          CLEAR     51  39  63 S3        30.05S
FREMONT        CLOUDY    49  42  78 CALM      30.05S
$$



USA.gov is the U.S. government's official web portal to all federal, state and local government web resources and services.